Sturgeon Bay, WI

10:01 PM CDT on October 23, 2019 (GMT -0500)
Door County Cherryland

Weather History for KSUE - August, 2019

Change the Weather History Date:

Saturday, August 24, 2019

  Actual Average Record
Temperature  
Mean Temperature 60 °F -  
Max Temperature 69 °F 74 °F 96 °F (1948)
Min Temperature 52 °F 56 °F 39 °F (1927)
Degree Days  
Heating Degree Days 4    
Growing Degree Days 10 (Base 50)    
Moisture  
Dew Point 53 °F    
Average Humidity 73    
Maximum Humidity 100    
Minimum Humidity 52    
Precipitation  
Precipitation 0.00 in - - ()
Sea Level Pressure  
Sea Level Pressure 30.31 in    
Wind  
Wind Speed 4 mph (ESE)    
Max Wind Speed 10 mph    
Max Gust Speed -    
Visibility 10 miles    
Events      
Averages and records for this station are not official NWS values.
T = Trace of Precipitation, MM = Missing Value Source: NWS Daily Summary

Daily Weather History Graph

Daily Weather History Graph

Search for Another Location

Airport or City:

Astronomy

Aug. 24, 2019 Rise Set
Actual Time 6:02 AM CDT 7:41 PM CDT
Civil Twilight 5:31 AM CDT 8:11 PM CDT
Nautical Twilight 4:53 AM CDT 8:49 PM CDT
Astronomical Twilight 4:12 AM CDT 9:29 PM CDT
Moon No Moon Rise 3:03 PM CDT
Length of Visible Light 14h 40m
Length of Day
13h 38m
Last Quarter, 39% of the Moon is Illuminated
Aug 24
Last Quarter
Aug 30
New
Sep 5
First Quarter
Sep 13
Full
Sep 21
Last Quarter

Hourly Weather History & Observations

Time (CDT) Temp. Dew Point Humidity Pressure Visibility Wind Dir Wind Speed Gust Speed Precip Events Conditions
12:56 AM 53.1 °F 50.0 °F 89% 30.31 in 10.0 mi Calm Calm - N/A   Clear
1:56 AM 55.0 °F 51.1 °F 86% 30.31 in 10.0 mi NNE 3.5 mph - N/A   Clear
2:56 AM 55.9 °F 52.0 °F 87% 30.31 in 10.0 mi ENE 6.9 mph - N/A   Clear
3:56 AM 53.1 °F 51.1 °F 93% 30.33 in 10.0 mi Calm Calm - N/A   Clear
4:56 AM 52.0 °F 52.0 °F 100% 30.34 in 5.0 mi Calm Calm - N/A   Clear
5:56 AM 52.0 °F 51.1 °F 97% 30.35 in 10.0 mi Calm Calm - N/A   Clear
6:56 AM 52.0 °F 50.0 °F 93% 30.36 in 10.0 mi NE 3.5 mph - N/A   Clear
7:56 AM 63.0 °F 55.9 °F 78% 30.36 in 10.0 mi SE 4.6 mph - N/A   Clear
8:56 AM 64.9 °F 55.9 °F 73% 30.35 in 10.0 mi SSE 9.2 mph - N/A   Clear
9:56 AM 66.9 °F 55.9 °F 68% 30.35 in 10.0 mi SE 9.2 mph - N/A   Scattered Clouds
10:14 AM 66.2 °F 55.4 °F 68% 30.35 in 10.0 mi SE 8.1 mph - N/A   Mostly Cloudy
10:56 AM 66.0 °F 54.0 °F 65% 30.35 in 10.0 mi SE 9.2 mph - N/A   Mostly Cloudy
11:08 AM 66.2 °F 55.4 °F 68% 30.35 in 10.0 mi SSE 8.1 mph - N/A   Overcast
11:56 AM 66.9 °F 55.0 °F 66% 30.34 in 10.0 mi SE 10.4 mph - N/A   Scattered Clouds
12:56 PM 66.9 °F 53.1 °F 61% 30.33 in 10.0 mi ESE 8.1 mph - N/A   Mostly Cloudy
1:56 PM 68.0 °F 54.0 °F 61% 30.32 in 10.0 mi East 8.1 mph - N/A   Partly Cloudy
2:56 PM 69.1 °F 54.0 °F 58% 30.30 in 10.0 mi SSE 5.8 mph - N/A   Scattered Clouds
3:56 PM 69.1 °F 52.0 °F 54% 30.30 in 10.0 mi East 8.1 mph - N/A   Clear
4:56 PM 68.0 °F 52.0 °F 56% 30.28 in 10.0 mi ESE 8.1 mph - N/A   Clear
5:56 PM 68.0 °F 50.0 °F 52% 30.27 in 10.0 mi ESE 5.8 mph - N/A   Clear
6:56 PM 66.0 °F 52.0 °F 60% 30.27 in 10.0 mi East 3.5 mph - N/A   Clear
7:56 PM 63.0 °F 53.1 °F 70% 30.27 in 10.0 mi East 3.5 mph - N/A   Clear
8:56 PM 62.1 °F 52.0 °F 70% 30.27 in 10.0 mi East 4.6 mph - N/A   Clear
9:56 PM 61.0 °F 52.0 °F 72% 30.26 in 10.0 mi East 4.6 mph - N/A   Clear
10:56 PM 61.0 °F 53.1 °F 75% 30.25 in 10.0 mi East 3.5 mph - N/A   Clear
11:56 PM 60.1 °F 54.0 °F 80% 30.24 in 10.0 mi East 4.6 mph - N/A   Clear